Location: ASU Dark Sky Observatory
(36.2504°N, 81.4125°W)
Time: 13:46:16
(UTC-05:00)

Amateur Radio Satellites - All Passes

Search period start: 04 March 2015 13:16
Search period end: 05 March 2015 13:16
Location: ASU Dark Sky Observatory, 36.2504°N, 81.4125°W

Satellite Date Start Highest point End Downlink Frequencies (MHz)
Time Altitude Azimuth
BEESAT 04 Mar 13:18:59 13:22:59 26° 95° (E) 13:27:03 436.000
AO-7 04 Mar 13:31:06 13:33:47 12° 51° (NE) 13:37:02 29.400- 29.500
ITUPSAT 1 04 Mar 13:47:03 13:51:46 52° 100° (E) 13:56:28 437.325
Gurwin Techsat 1B 04 Mar 13:57:28 14:02:39 59° 74° (ENE) 14:07:54 435.225
HORYU 2 04 Mar 14:01:24 14:03:36 14° 67° (ENE) 14:06:00 437.375
Oscar 19 04 Mar 14:12:57 14:17:03 23° 266° (W) 14:21:01 437.125/150
ITAMSAT 1 04 Mar 14:14:03 14:19:15 70° 258° (WSW) 14:24:30 435.822/435.867
KKS-1 04 Mar 14:36:23 14:40:19 32° 97° (E) 14:44:18 437.445
STARS 04 Mar 14:38:46 14:42:03 21° 94° (E) 14:45:25 437.465
ISS 04 Mar 14:44:52 14:47:42 28° 33° (NNE) 14:50:33 145.825
SWISSCUBE 04 Mar 14:48:19 14:52:35 31° 289° (WNW) 14:56:46 437.505
BEESAT 04 Mar 14:56:41 15:00:48 28° 290° (WNW) 15:04:50 436.000
AO-7 04 Mar 15:17:01 15:25:11 63° 69° (ENE) 15:33:25 29.400- 29.500
YUBILEINY 04 Mar 15:21:32 15:29:05 35° 87° (E) 15:36:51 435.215
ITUPSAT 1 04 Mar 15:26:25 15:29:17 15° 294° (WNW) 15:31:56 437.325
HORYU 2 04 Mar 15:35:37 15:39:54 48° 261° (W) 15:44:12 437.375
Gurwin Techsat 1B 04 Mar 15:40:04 15:43:07 15° 270° (W) 15:45:53 435.225
BEESAT 3 04 Mar 15:49:49 15:52:08 15° 110° (ESE) 15:54:38 437.485
MOZHAYETS 4 04 Mar 16:03:21 16:05:25 13° 90° (E) 16:07:45
JAS-2 04 Mar 16:03:45 16:09:10 75° 75° (ENE) 16:15:18 435.910
VERMONT LUNAR 04 Mar 16:03:55 16:07:00 30° 149° (SSE) 16:10:08 437.305
KKS-1 04 Mar 16:13:29 16:16:49 20° 291° (WNW) 16:20:00 437.445
STARS 04 Mar 16:14:44 16:18:33 29° 289° (WNW) 16:22:18 437.465
BEESAT 2 04 Mar 16:16:25 16:19:49 26° 113° (ESE) 16:23:21 435.950
M-CUBED/EXP-1 PRIME 04 Mar 16:21:10 16:24:49 26° 101° (E) 16:28:45 437.505
ISS 04 Mar 16:21:20 16:24:01 24° 228° (SW) 16:26:40 145.825
AUBIESAT-1 04 Mar 16:21:33 16:25:02 23° 100° (E) 16:28:47 437.475
PHONESAT 2.4 04 Mar 16:22:31 16:25:17 21° 146° (SE) 16:28:06 2401.200-2431.200
AIST 2 04 Mar 16:27:05 16:28:40 12° 109° (ESE) 16:30:30 435.215
CUTE-I 04 Mar 16:29:09 16:30:49 12° 63° (ENE) 16:32:49 437.470
AO-7 04 Mar 17:11:50 17:18:35 25° 266° (W) 17:25:00 29.400- 29.500
YUBILEINY 04 Mar 17:17:27 17:25:44 45° 285° (WNW) 17:34:02 435.215
BEESAT 3 04 Mar 17:26:03 17:29:55 40° 305° (NW) 17:33:50 437.485
MOZHAYETS 4 04 Mar 17:38:30 17:43:02 52° 286° (WNW) 17:47:32
VERMONT LUNAR 04 Mar 17:41:19 17:44:47 63° 344° (NNW) 17:48:16 437.305
JAS-2 04 Mar 17:53:17 17:55:21 12° 275° (W) 17:57:02 435.910
BEESAT 2 04 Mar 17:54:31 17:57:58 25° 308° (NW) 18:01:25 435.950
M-CUBED/EXP-1 PRIME 04 Mar 17:55:55 17:59:41 28° 292° (WNW) 18:03:35 437.505
AUBIESAT-1 04 Mar 17:55:59 17:59:53 31° 292° (WNW) 18:03:55 437.475
AIST 1 04 Mar 17:56:08 18:00:11 35° 78° (ENE) 18:04:13
Cubesat XI-IV 04 Mar 17:56:33 18:01:54 83° 78° (ENE) 18:07:20 437.490
PRISM 04 Mar 17:59:10 18:01:38 16° 92° (E) 18:04:15 437.425
PHONESAT 2.4 04 Mar 17:59:50 18:03:28 85° 337° (NNW) 18:07:08 2401.200-2431.200
AIST 2 04 Mar 18:02:42 18:06:52 53° 303° (WNW) 18:11:05 435.215
CUTE-I 04 Mar 18:04:54 18:10:16 83° 257° (WSW) 18:15:41 437.470
CUBESAT XI-V 04 Mar 18:07:00 18:10:32 21° 93° (E) 18:14:10 437.345
O/OREOS (USA 219) 04 Mar 18:08:19 18:11:11 17° 57° (ENE) 18:14:11 437.305
STRAND 1 04 Mar 19:02:49 19:07:48 49° 100° (E) 19:12:45 437.568
VERMONT LUNAR 04 Mar 19:19:41 19:22:59 39° 1° (N) 19:26:18 437.305
GOMX 1 04 Mar 19:22:53 19:26:30 19° 69° (ENE) 19:30:11 467.674
BRITE-PL 04 Mar 19:27:42 19:32:38 33° 72° (ENE) 19:37:27 437.365/2234.400
PRISM 04 Mar 19:33:23 19:37:19 37° 287° (WNW) 19:41:11 437.425
AIST 1 04 Mar 19:34:48 19:37:35 16° 272° (W) 19:40:10
PHONESAT 2.4 04 Mar 19:38:41 19:42:10 41° 357° (N) 19:45:39 2401.200-2431.200
CUBESAT XI-V 04 Mar 19:43:50 19:48:04 33° 288° (WNW) 19:52:13 437.345
O/OREOS (USA 219) 04 Mar 19:46:32 19:50:54 44° 254° (WSW) 19:55:13 437.305
DOVE 4 04 Mar 19:47:10 19:51:00 22° 70° (ENE) 19:54:49 437.250
PCSat 04 Mar 19:49:54 19:54:58 43° 111° (ESE) 20:00:06 145.827
SEEDS 04 Mar 19:51:03 19:54:13 22° 71° (ENE) 19:57:31 437.485
CANX-2 04 Mar 19:57:08 20:00:56 34° 73° (ENE) 20:04:47 2200.000
HO-68 04 Mar 20:01:21 20:08:18 59° 71° (ENE) 20:15:19 435.675
CUTE 1.7 + AOD 2 04 Mar 20:15:05 20:19:09 51° 75° (ENE) 20:23:16 437.475
UWE-3 04 Mar 20:40:24 20:43:12 17° 70° (ENE) 20:46:08 435.000/436.395/437.385
STRAND 1 04 Mar 20:43:08 20:46:39 18° 294° (WNW) 20:49:58 437.568
AAUSAT CUBESAT 2 04 Mar 20:50:30 20:54:38 82° 77° (ENE) 20:58:47 437.432
COMPASS 1 04 Mar 20:54:52 20:59:01 76° 258° (WSW) 21:03:11 437.405
VERMONT LUNAR 04 Mar 20:57:41 21:01:10 70° 16° (NNE) 21:04:38 437.305
GOMX 1 04 Mar 20:59:08 21:04:22 48° 261° (W) 21:09:20 467.674
Oscar 11 04 Mar 20:59:22 21:03:28 46° 74° (ENE) 21:07:37 145.826/435.025
BRITE-PL 04 Mar 21:06:09 21:11:06 30° 265° (W) 21:15:48 437.365/2234.400
CINEMA 3 04 Mar 21:15:01 21:19:50 83° 260° (W) 21:24:26 145.822/145.860
PHONESAT 2.4 04 Mar 21:17:22 21:20:58 56° 13° (NNE) 21:24:32 2401.200-2431.200
CUBEBUG 2 04 Mar 21:20:53 21:25:20 62° 76° (ENE) 21:29:40 437.445
DOVE 4 04 Mar 21:23:48 21:28:36 37° 263° (W) 21:33:08 437.250
SEEDS 04 Mar 21:26:27 21:29:58 25° 265° (W) 21:33:26 437.485
DX 1 04 Mar 21:27:26 21:31:38 47° 73° (ENE) 21:35:52 434.975-435.025
GONETS M04 04 Mar 21:29:49 21:38:05 53° 91° (E) 21:46:27
PCSat 04 Mar 21:34:08 21:38:36 25° 308° (NW) 21:42:57 145.827
CANX-2 04 Mar 21:34:17 21:37:02 16° 268° (W) 21:39:37 2200.000
HUMSAT D 04 Mar 21:36:41 21:40:18 29° 72° (ENE) 21:43:58 437.325/437.525
CUBEBUG 1 04 Mar 21:40:52 21:41:15 10° 65° (ENE) 21:41:53 437.445
AISAT 04 Mar 21:41:41 21:45:25 27° 71° (ENE) 21:49:14 437.250
DELFI C3 04 Mar 21:44:53 21:48:52 61° 259° (W) 21:52:52 145.870
FUNcube-1 04 Mar 21:48:34 21:52:57 85° 80° (E) 21:57:15 145.935
VELOX 1 04 Mar 21:49:51 21:53:48 32° 71° (ENE) 21:57:49 145.980
ZACube-1 04 Mar 21:50:41 21:55:04 89° 256° (WSW) 21:59:22 437.345
HO-68 04 Mar 21:50:57 21:56:31 23° 267° (W) 22:01:49 435.675
UKube-1 04 Mar 21:53:54 21:58:15 89° 261° (W) 22:02:38 .
CUTE 1.7 + AOD 2 04 Mar 21:54:17 21:55:29 11° 271° (W) 21:56:24 437.475
ESTCUBE 1 04 Mar 22:14:13 22:18:02 28° 71° (ENE) 22:21:56 437.505/2401.250
UWE-3 04 Mar 22:15:25 22:19:33 36° 263° (W) 22:23:34 435.000/436.395/437.385
QB50P1 04 Mar 22:19:30 22:20:45 11° 90° (E) 22:22:16 145.935-145.965
QB50P2 04 Mar 22:23:33 22:25:30 13° 91° (E) 22:27:42 145.880/145.840
UNISAT 6 04 Mar 22:25:33 22:29:14 27° 96° (E) 22:33:02 437.425
DUCHIFAT 1 04 Mar 22:35:49 22:38:40 18° 93° (E) 22:41:39 145.980
VERMONT LUNAR 04 Mar 22:35:56 22:38:54 26° 212° (SSW) 22:41:48 437.305
Oscar 11 04 Mar 22:37:58 22:39:59 13° 270° (W) 22:41:45 145.826/435.025
RS-15 04 Mar 22:39:56 22:50:28 58° 113° (ESE) 23:01:08 29.354- 29.394
50 SAT 04 Mar 22:44:24 22:48:19 56° 260° (W) 22:52:13 437.505
TIGRISAT 04 Mar 22:49:07 22:53:18 51° 100° (E) 22:57:34 435.000
PHONESAT 2.4 04 Mar 22:55:57 22:59:22 39° 209° (SSW) 23:02:46 2401.200-2431.200
POPSAT HIP 1 04 Mar 22:57:22 23:01:11 33° 97° (E) 23:05:00 437.405
POLYITAN 1 04 Mar 22:58:01 23:01:52 34° 97° (E) 23:05:44 437.675
ANTELSAT 04 Mar 23:03:56 23:08:16 81° 103° (ESE) 23:12:39 437.575/2403.000
DX 1 04 Mar 23:05:58 23:08:12 13° 269° (W) 23:10:12 434.975-435.025
CUBEBUG 1 04 Mar 23:12:41 23:17:06 69° 259° (W) 23:21:33 437.445
HUMSAT D 04 Mar 23:13:07 23:16:10 19° 267° (W) 23:19:03 437.325/437.525
AISAT 04 Mar 23:18:17 23:22:01 24° 265° (W) 23:25:39 437.250
NANOSAT C BR1 04 Mar 23:19:20 23:23:32 63° 101° (E) 23:27:41 145.865
VELOX 1 04 Mar 23:27:04 23:30:28 20° 266° (W) 23:33:44 145.980
GONETS M04 04 Mar 23:27:52 23:35:21 30° 290° (WNW) 23:42:37
TISAT 1 04 Mar 23:31:28 23:35:26 39° 73° (ENE) 23:39:26 437.305
SPROUT 04 Mar 23:35:47 23:39:58 49° 74° (ENE) 23:44:10 437.525
DANDE 04 Mar 23:47:12 23:53:57 57° 97° (E) 23:59:04 436.750
BUGSAT 1 04 Mar 23:50:50 23:54:59 73° 284° (WNW) 23:59:02 437.445
ESTCUBE 1 04 Mar 23:51:13 23:54:55 24° 266° (W) 23:58:31 437.505/2401.250
QB50P1 04 Mar 23:52:55 23:57:01 49° 286° (WNW) 00:01:03 145.935-145.965
QB50P2 04 Mar 23:57:41 00:01:42 42° 286° (WNW) 00:05:40 145.880/145.840
UNISAT 6 05 Mar 00:02:34 00:05:56 22° 290° (WNW) 00:09:15 437.425
CUSAT 1 05 Mar 00:03:26 00:09:50 83° 278° (W) 00:14:36 437.405
SO-50 05 Mar 00:08:27 00:11:22 17° 110° (ESE) 00:14:32 436.795
DUCHIFAT 1 05 Mar 00:10:52 00:14:37 31° 288° (WNW) 00:18:17 145.980
SWISSCUBE 05 Mar 00:15:27 00:18:57 21° 68° (ENE) 00:22:35 437.505
BEESAT 05 Mar 00:23:24 00:27:05 23° 69° (ENE) 00:30:55 436.000
TIGRISAT 05 Mar 00:27:48 00:29:43 12° 293° (WNW) 00:31:26 435.000
POPSAT HIP 1 05 Mar 00:33:59 00:36:52 18° 291° (WNW) 00:39:35 437.405
POLYITAN 1 05 Mar 00:34:46 00:37:34 17° 291° (WNW) 00:40:14 437.675
Oscar 19 05 Mar 00:48:16 00:51:09 16° 91° (E) 00:54:18 437.125/150
ITUPSAT 1 05 Mar 00:51:23 00:55:54 45° 73° (ENE) 01:00:30 437.325
RS-15 05 Mar 00:53:16 01:03:21 39° 315° (NW) 01:13:26 29.354- 29.394
TISAT 1 05 Mar 01:08:52 01:11:27 15° 268° (W) 01:13:51 437.305
SPROUT 05 Mar 01:14:31 01:16:24 12° 270° (W) 01:18:03 437.525
KKS-1 05 Mar 01:32:36 01:36:00 22° 70° (ENE) 01:39:31 437.445
DANDE 05 Mar 01:33:02 01:37:18 18° 285° (WNW) 01:40:41 436.750
STARS 05 Mar 01:34:25 01:36:46 15° 67° (ENE) 01:39:20 437.465
YUBILEINY 05 Mar 01:36:28 01:40:30 14° 61° (ENE) 01:45:11 435.215
SO-50 05 Mar 01:47:11 01:51:35 44° 305° (NW) 01:56:08 436.795
BEESAT 3 05 Mar 01:47:28 01:51:30 51° 57° (ENE) 01:55:28 437.485
SWISSCUBE 05 Mar 01:52:13 01:56:37 36° 263° (W) 02:01:01 437.505
BEESAT 05 Mar 02:00:32 02:04:49 32° 263° (W) 02:09:04 436.000
JUGNU 05 Mar 02:07:23 02:10:35 15° 175° (S) 02:13:49 437.505
BEESAT 2 05 Mar 02:15:43 02:19:53 88° 242° (WSW) 02:23:58 435.950
SRMSAT 05 Mar 02:15:44 02:16:59 11° 167° (SSE) 02:18:21 437.500
Gurwin Techsat 1B 05 Mar 02:16:47 02:21:20 29° 95° (E) 02:25:57 435.225
Oscar 19 05 Mar 02:25:54 02:30:54 53° 287° (WNW) 02:35:52 437.125/150
AIST 2 05 Mar 02:27:04 02:31:08 43° 56° (NE) 02:35:09 435.215
ITAMSAT 1 05 Mar 02:29:41 02:34:47 52° 100° (E) 02:39:51 435.822/435.867
ITUPSAT 1 05 Mar 02:31:01 02:34:06 16° 268° (W) 02:36:58 437.325
KKS-1 05 Mar 03:08:34 03:12:31 29° 264° (W) 03:16:25 437.445
STARS 05 Mar 03:08:39 03:12:55 46° 261° (W) 03:17:11 437.465
M-CUBED/EXP-1 PRIME 05 Mar 03:09:32 03:11:37 16° 65° (ENE) 03:13:51 437.505
AUBIESAT-1 05 Mar 03:09:37 03:11:25 14° 64° (ENE) 03:13:22 437.475
RS-15 05 Mar 03:14:31 03:20:16 15° 347° (NNW) 03:25:51 29.354- 29.394
JAS-2 05 Mar 03:16:47 03:20:40 15° 87° (E) 03:25:08 435.910
AO-7 05 Mar 03:22:48 03:28:52 23° 93° (E) 03:35:17 29.400- 29.500
BEESAT 3 05 Mar 03:27:38 03:29:11 12° 251° (WSW) 03:30:30 437.485
HORYU 2 05 Mar 03:29:35 03:33:44 38° 98° (E) 03:37:54 437.375
YUBILEINY 05 Mar 03:30:10 03:39:03 81° 83° (E) 03:47:53 435.215
JUGNU 05 Mar 03:55:36 03:58:51 15° 185° (S) 04:02:04 437.505
Gurwin Techsat 1B 05 Mar 03:56:39 04:01:18 31° 290° (WNW) 04:05:52 435.225
SRMSAT 05 Mar 04:01:58 04:05:24 16° 177° (S) 04:08:52 437.500
AIST 2 05 Mar 04:06:55 04:09:24 15° 250° (WSW) 04:11:42 435.215
ITAMSAT 1 05 Mar 04:10:27 04:13:55 18° 294° (WNW) 04:17:10 435.822/435.867
MOZHAYETS 4 05 Mar 04:37:36 04:42:09 76° 259° (WSW) 04:46:44
PCSat 05 Mar 04:40:52 04:44:56 22° 50° (NE) 04:49:07 145.827
AUBIESAT-1 05 Mar 04:43:19 04:46:08 25° 259° (W) 04:49:00 437.475
M-CUBED/EXP-1 PRIME 05 Mar 04:43:50 04:46:29 22° 260° (W) 04:49:08 437.505
JAS-2 05 Mar 04:58:58 05:06:37 88° 103° (ESE) 05:14:31 435.910
HORYU 2 05 Mar 05:07:08 05:10:09 18° 292° (WNW) 05:13:02 437.375
CUBESAT XI-V 05 Mar 05:08:44 05:11:34 17° 68° (ENE) 05:14:37 437.345
AO-7 05 Mar 05:14:08 05:22:22 68° 290° (WNW) 05:30:32 29.400- 29.500
YUBILEINY 05 Mar 05:29:17 05:34:58 18° 278° (W) 05:40:06 435.215
RS-15 05 Mar 05:31:58 05:39:05 19° 24° (NNE) 05:46:46 29.354- 29.394
SRMSAT 05 Mar 05:50:41 05:53:51 14° 187° (S) 05:56:56 437.500
STRAND 1 05 Mar 06:16:01 06:21:00 54° 73° (ENE) 06:26:03 437.568
Cubesat XI-IV 05 Mar 06:16:50 06:21:52 41° 98° (E) 06:26:55 437.490
PRISM 05 Mar 06:20:46 06:24:53 73° 258° (WSW) 06:29:04 437.425
AIST 1 05 Mar 06:23:22 06:26:50 24° 90° (E) 06:30:24
PCSat 05 Mar 06:23:26 06:28:41 50° 248° (WSW) 06:33:53 145.827
CUTE-I 05 Mar 06:24:54 06:30:05 49° 99° (E) 06:35:15 437.470
CUBESAT XI-V 05 Mar 06:44:12 06:48:41 45° 262° (W) 06:53:13 437.345
JAS-2 05 Mar 06:45:53 06:50:55 19° 297° (WNW) 06:55:41 435.910
AO-7 05 Mar 07:10:08 07:13:51 13° 308° (NW) 07:17:02 29.400- 29.500
ISS 05 Mar 07:21:50 07:24:44 32° 133° (SE) 07:27:39 145.825
HO-68 05 Mar 07:36:27 07:37:26 10° 86° (E) 07:39:05 435.675
RS-15 05 Mar 07:43:46 07:54:57 56° 52° (NE) 08:06:41 29.354- 29.394
GONETS M04 05 Mar 07:44:07 07:50:24 22° 66° (ENE) 07:57:05
STRAND 1 05 Mar 07:57:30 08:00:36 15° 269° (W) 08:03:28 437.568
Cubesat XI-IV 05 Mar 07:57:34 08:01:45 23° 293° (WNW) 08:05:45 437.490
AIST 1 05 Mar 08:00:54 08:04:27 23° 285° (WNW) 08:07:56
CUTE 1.7 + AOD 2 05 Mar 08:05:34 08:06:32 11° 89° (E) 08:07:48 437.475
CUTE-I 05 Mar 08:06:02 08:09:50 19° 294° (WNW) 08:13:27 437.470
O/OREOS (USA 219) 05 Mar 08:17:15 08:21:05 28° 104° (ESE) 08:25:03 437.305
AAUSAT CUBESAT 2 05 Mar 08:37:39 08:40:08 16° 92° (E) 08:42:49 437.432
COMPASS 1 05 Mar 08:41:56 08:45:05 21° 94° (E) 08:48:20 437.405
SO-50 05 Mar 08:42:43 08:44:21 12° 40° (NE) 08:46:11 436.795
Oscar 11 05 Mar 08:52:27 08:52:50 10° 89° (E) 08:53:32 145.826/435.025
ISS 05 Mar 08:58:30 09:01:09 23° 328° (NNW) 09:03:47 145.825
GOMX 1 05 Mar 09:04:18 09:08:33 62° 100° (E) 09:12:39 467.674
SEEDS 05 Mar 09:12:42 09:16:54 61° 100° (E) 09:21:07 437.485
CINEMA 3 05 Mar 09:13:26 09:16:51 25° 95° (E) 09:20:20 145.822/145.860
BRITE-PL 05 Mar 09:13:54 09:18:18 63° 284° (WNW) 09:22:26 437.365/2234.400
CUBEBUG 2 05 Mar 09:16:16 09:18:26 14° 92° (E) 09:20:48 437.445
HO-68 05 Mar 09:19:11 09:26:24 78° 104° (ESE) 09:33:36 435.675
CANX-2 05 Mar 09:20:26 09:24:42 80° 282° (WNW) 09:28:58 2200.000
UNISAT 6 05 Mar 09:23:01 09:26:02 19° 70° (ENE) 09:29:09 437.425
DOVE 4 05 Mar 09:25:45 09:29:57 74° 101° (E) 09:34:05 437.250
DUCHIFAT 1 05 Mar 09:28:05 09:29:01 11° 66° (ENE) 09:30:13 145.980
DELFI C3 05 Mar 09:28:06 09:31:14 22° 94° (E) 09:34:27 145.870
CUTE 1.7 + AOD 2 05 Mar 09:38:42 09:42:51 52° 285° (WNW) 09:47:01 437.475
GONETS M04 05 Mar 09:39:27 09:48:10 71° 266° (W) 09:56:53
FUNcube-1 05 Mar 09:40:44 09:43:34 18° 93° (E) 09:46:33 145.935
ZACube-1 05 Mar 09:42:54 09:45:54 20° 94° (E) 09:49:03 437.345
UKube-1 05 Mar 09:45:17 09:48:16 19° 94° (E) 09:51:22 .
TIGRISAT 05 Mar 09:45:43 09:49:38 33° 72° (ENE) 09:53:31 435.000
POPSAT HIP 1 05 Mar 09:48:30 09:51:32 20° 69° (ENE) 09:54:40 437.405
POLYITAN 1 05 Mar 09:49:22 09:52:28 20° 70° (ENE) 09:55:42 437.675
RS-15 05 Mar 09:56:38 10:07:12 41° 251° (WSW) 10:17:55 29.354- 29.394
O/OREOS (USA 219) 05 Mar 09:56:45 10:00:31 24° 299° (WNW) 10:04:14 437.305
ANTELSAT 05 Mar 10:00:33 10:04:48 51° 74° (ENE) 10:09:00 437.575/2403.000
UWE-3 05 Mar 10:07:43 10:11:46 49° 99° (E) 10:15:51 435.000/436.395/437.385
NANOSAT C BR1 05 Mar 10:09:38 10:13:28 33° 72° (ENE) 10:17:21 145.865
AAUSAT CUBESAT 2 05 Mar 10:12:06 10:15:57 35° 287° (WNW) 10:19:47 437.432
COMPASS 1 05 Mar 10:17:12 10:20:48 27° 288° (WNW) 10:24:21 437.405
SO-50 05 Mar 10:20:48 10:25:47 80° 59° (ENE) 10:30:41 436.795
Oscar 11 05 Mar 10:25:12 10:29:28 57° 284° (WNW) 10:33:42 145.826/435.025
50 SAT 05 Mar 10:26:07 10:29:06 21° 94° (E) 10:32:12 437.505
DANDE 05 Mar 10:33:56 10:35:23 14° 75° (ENE) 10:36:57 436.750
BUGSAT 1 05 Mar 10:38:04 10:42:14 54° 75° (ENE) 10:46:25 437.445
QB50P1 05 Mar 10:42:45 10:47:02 86° 77° (ENE) 10:51:20 145.935-145.965
CUSAT 1 05 Mar 10:45:45 10:48:10 34° 79° (E) 10:50:49 437.405
QB50P2 05 Mar 10:47:38 10:51:56 82° 258° (WSW) 10:56:13 145.880/145.840
CINEMA 3 05 Mar 10:50:47 10:54:00 21° 290° (WNW) 10:57:07 145.822/145.860
CUBEBUG 2 05 Mar 10:51:30 10:55:22 38° 287° (WNW) 10:59:14 437.445
SEEDS 05 Mar 10:51:36 10:52:16 10° 293° (WNW) 10:52:41 437.485
DX 1 05 Mar 10:54:26 10:58:46 62° 285° (WNW) 11:03:02 434.975-435.025
HUMSAT D 05 Mar 10:58:34 11:02:42 84° 100° (E) 11:06:50 437.325/437.525
UNISAT 6 05 Mar 10:58:40 11:02:39 33° 263° (W) 11:06:33 437.425
DUCHIFAT 1 05 Mar 11:00:12 11:04:26 59° 260° (W) 11:08:39 145.980
DELFI C3 05 Mar 11:03:01 11:06:24 25° 289° (WNW) 11:09:43 145.870
CUBEBUG 1 05 Mar 11:04:55 11:08:35 26° 95° (E) 11:12:17 437.445
HO-68 05 Mar 11:08:37 11:13:27 19° 300° (WNW) 11:17:58 435.675
AISAT 05 Mar 11:10:56 11:15:24 79° 102° (ESE) 11:19:48 437.250
FUNcube-1 05 Mar 11:16:20 11:20:00 30° 288° (WNW) 11:23:38 145.935
ZACube-1 05 Mar 11:18:46 11:22:20 28° 288° (WNW) 11:25:52 437.345
VELOX 1 05 Mar 11:19:03 11:23:31 86° 284° (WNW) 11:27:56 145.980
UKube-1 05 Mar 11:20:37 11:24:32 32° 288° (WNW) 11:28:22 .
TIGRISAT 05 Mar 11:23:23 11:26:30 18° 267° (W) 11:29:27 435.000
POPSAT HIP 1 05 Mar 11:23:24 11:27:15 31° 263° (W) 11:31:03 437.405
POLYITAN 1 05 Mar 11:24:27 11:28:16 30° 264° (W) 11:32:00 437.675
SPROUT 05 Mar 11:28:19 11:28:45 10° 89° (E) 11:29:29 437.525
ANTELSAT 05 Mar 11:40:14 11:41:58 12° 270° (W) 11:43:24 437.575/2403.000
GONETS M04 05 Mar 11:42:19 11:43:43 10° 282° (WNW) 11:44:14
ESTCUBE 1 05 Mar 11:45:34 11:50:09 88° 102° (ESE) 11:54:42 437.505/2401.250
UWE-3 05 Mar 11:46:20 11:47:57 12° 293° (WNW) 11:49:22 435.000/436.395/437.385
NANOSAT C BR1 05 Mar 11:46:30 11:49:28 17° 267° (W) 11:52:16 145.865
50 SAT 05 Mar 12:00:52 12:04:05 24° 289° (WNW) 12:07:15 437.505
Oscar 19 05 Mar 12:02:45 12:06:08 19° 67° (ENE) 12:09:41 437.125/150
SO-50 05 Mar 12:04:55 12:05:47 10° 252° (WSW) 12:06:18 436.795
BUGSAT 1 05 Mar 12:16:52 12:18:07 11° 270° (W) 12:19:04 437.445
CUBEBUG 1 05 Mar 12:41:19 12:44:53 24° 290° (WNW) 12:48:19 437.445
TISAT 1 05 Mar 12:54:15 12:58:29 77° 284° (WNW) 13:02:39 437.305
ITUPSAT 1 05 Mar 12:56:13 12:58:43 14° 91° (E) 13:01:27 437.325
SPROUT 05 Mar 13:01:05 13:05:17 56° 285° (WNW) 13:09:28 437.525
